Regional Weather Roundup
Issued by NWS

Home | Current Version | Previous Version | Text Only | Print | Product List | Glossary Off
Versions: 1 2 3 4 5 6 7 8 9 10 11 12 13 14 15 16 17 18 19 20 21 22 23 24 25 26 27

000
ASUS45 KBOU 181710
RWRCO

WEATHER ROUNDUP FOR COLORADO
NATIONAL WEATHER SERVICE DENVER/BOULDER CO
1000 AM MST SAT NOV 18 2017

NOTE: "FAIR" INDICATES FEW OR NO CLOUDS BELOW 12000 FEET WITH NO
SIGNIFICANT WEATHER AND/OR OBSTRUCTIONS TO VISIBILITY.

COZ001>005-013-030-031-181800-
...NORTHWEST COLORADO...

CITY           SKY/WX    TMP DP  RH WIND       PRES   REMARKS
CRAIG          FAIR      18  14  84 CALM      30.44S
HAYDEN         FAIR      28  18  66 SE5       30.44R WCI  23
MEEKER         FAIR      17  13  84 MISG      30.43S
RABBIT EARS PA CLOUDY   N/A N/A N/A W9        30.28S
STEAMBOAT SPGS FAIR      24  14  64 E3        30.42R
WALDEN         FAIR      19   9  63 S14       30.35R WCI   6
$$

COZ006>008-011-181800-
...WEST CENTRAL VALLEYS...

CITY           SKY/WX    TMP DP  RH WIND       PRES   REMARKS
GRAND JUNCTION FAIR      34  22  61 VRB3      30.46R
MONTROSE       FAIR      31  17  56 CALM      30.48R
EAGLE          FAIR      30  17  58 CALM      30.47R
RIFLE          FAIR      25  19  78 CALM      30.48R
DELTA          FAIR      34  20  57 CALM      30.47S
NUCLA          FAIR      32  16  51 CALM      30.45R
$$

COZ017>023-064>068-181800-
...SOUTHWEST COLORADO...

CITY           SKY/WX    TMP DP  RH WIND       PRES   REMARKS
DURANGO        FAIR      32  16  51 VRB5      30.35R WCI  27
CORTEZ         FAIR      35  16  45 SE6       30.38R WCI  30
PAGOSA SPRINGS FAIR      31  13  47 S7        30.34R WCI  24
TELLURIDE      NOT AVBL
WOLF CREEK PAS FAIR      21 -13  21 NW3       30.35R
$$

COZ009-010-012-014-032>034-037-058>063-181800-
...CENTRAL COLORADO...

CITY           SKY/WX    TMP DP  RH WIND       PRES   REMARKS
ASPEN          FAIR      22  11  62 SE5       30.39S WCI  16
BUENA VISTA    FAIR      27   8  44 NW14G25   30.28R WCI  15
COPPER MTN     FAIR      12   3  67 MISG      30.27R
BERTHOUD PASS  CLOUDY     0 -11  60 N20G30    30.18S WCI -22
COTTONWOOD PAS FAIR      27  10  50 S6        30.26R WCI  20
GUNNISON       FAIR      19  11  70 SE3       30.41R
KREMMLING      FAIR      32  14  47 W12       30.41S WCI  23
LEADVILLE      FAIR      14   4  64 N9        30.29R WCI   2
MONARCH PASS   CLOUDY     7   3  85 SW25G36   30.34R WCI -15
SALIDA         FAIR      29  13  51 N9        30.38R WCI  21
SUNLIGHT         N/A     10   5  79 MISG      30.37R
WILKERSON PASS FAIR      21  -6  30 NW13G23   30.23R WCI   9
$$

COZ069>075-181800-
...SAN LUIS VALLEY/SANGRE DE CRISTO MOUNTAINS...

CITY           SKY/WX    TMP DP  RH WIND       PRES   REMARKS
ALAMOSA        FAIR      29   8  41 SE5       30.33R WCI  24
DEL NORTE      FAIR      31   3  30 E6        30.32R WCI  25
LA VETA PASS   FAIR      23   1  39 SW25G35     N/A  WCI   7
SAGUACHE       FAIR      28   9  43 N13G23    30.34R WCI  18
$$

COZ035-036-038>040-181800-
...NORTHERN COLORADO FRONT RANGE...

CITY           SKY/WX    TMP DP  RH WIND       PRES   REMARKS
DENVER INTL AP FAIR      36  14  40 S7        30.23S
DMNS CITY PARK   N/A     41  11  28 SE7G13    30.23S
AURORA         MOSUNNY   34  19  53 SE5       30.24R WCI  30
FRONT RANGE AP SUNNY     37  18  44 S6        30.25R
ERIE MUNI ARPT FAIR      41  13  32 SE8       30.27F
BOULDER MUN AP FAIR      41   9  26 CALM      30.20S
CENTENNIAL     FAIR      33  19  56 S9        30.23R WCI  25
BROOMFIELD     SUNNY     41   5  22 W20G25    30.22S
FORT COLLINS   FAIR      38  14  37 S7        30.23S
LONGMONT       FAIR      42  18  37 E5        30.23F
$$

COZ041-046-047-076>085-087-088-181800-
...PIKES PEAK/PALMER DIVIDE AND SOUTHERN FOOTHILLS...

CITY           SKY/WX    TMP DP  RH WIND       PRES   REMARKS
COLO. SPRINGS  FAIR      37  10  32 W3        30.27R
A. F. ACADEMY  FAIR      32  16  52 S5        30.25R WCI  27
SCHRIEVER AFB  FAIR      36   4  25 N6        30.27R
CHEYENNE MTN   FAIR      31  15  51 S16       30.18R WCI  20
ELLICOTT       NOT AVBL
FALCON         FAIR      33   8  35 S3        30.26R
FORT CARSON    FAIR      37  13  37 S12       30.26R
LIMON          FAIR      34  18  52 N14       30.27R WCI  25
MONUMENT HILL  FAIR      28  14  54 SW6       30.25R WCI  22
CANON CITY     FAIR      41  10  28 W9        30.27R
WALSENBURG     NOT AVBL
TRINIDAD       FAIR      35  23  61 VRB7      30.29S WCI  29
$$

COZ042>045-048>051-090-091-181800-
...NORTHEAST COLORADO...

CITY           SKY/WX    TMP DP  RH WIND       PRES   REMARKS
GREELEY ARPT   FAIR      36  14  40 CALM      30.25S
AKRON          FAIR      37  14  38 N29       30.24R
BURLINGTON     FAIR      41  18  39 N24G36    30.24R
WRAY           NOT AVBL
YUMA           FAIR      36  21  55 NW16G25   30.25R
STERLING       FAIR      39  19  45 NW25      30.24S
HOLYOKE        FAIR      43  19  39 NW26G32   30.24R
FORT MORGAN    FAIR      40   9  27 N20G26    30.25R
$$

COZ086-089-092>099-181800-
...SOUTHEAST COLORADO...

CITY           SKY/WX    TMP DP  RH WIND       PRES   REMARKS
PUEBLO         FAIR      40  21  46 CALM      30.30R
LA JUNTA       FAIR      46  17  31 N21       30.30R
LAMAR          FAIR      46  19  34 N18       30.26R
SPRINGFIELD      N/A     42  20  41 N29G35    30.25R
$$




USA.gov is the U.S. government's official web portal to all federal, state and local government web resources and services.